Location: Colossi of Memnon
(25.7167°N, 32.6167°E)
Time: 05:59:10
(UTC+00:00)

Hubble Space Telescope - Pass Details

Date: 03 October 2021
Orbit: 535 x 538 km, 28.5° (Epoch: 20 October)

Event Time Altitude Azimuth Distance (km) Brightness Sun altitude
Rises 02:58:02 0° 202° (SSW) 2,663 4.1 -10.9°
Reaches altitude 10° 03:02:09 10° 162° (SSE) 1,775 3.6 -9.9°
Maximum altitude 03:03:00 11° 150° (SSE) 1,742 3.8 -9.8°
Drops below altitude 10° 03:03:50 10° 138° (SE) 1,776 4.0 -9.6°
Sets 03:07:58 0° 98° (E) 2,667 6.5 -8.6°
